When you browse on this site, cookies collect data to enhance your experience and personalize the content and advertising you see.
Visit our Privacy Policy to learn more. By continuing to use the site, you agree to this use of cookies and data.
  • In Romania
  • List of Countries
  • For 7 days
  • Water Temperature
  • Satellite Maps
  • Weather Map
  • Weather Widgets
  • user-avatar
    Login

    Hourly Weather Wronki

    Today, 24 May, Friday

    Time Temperature Precipitation Wind Pressure Humidity
    00:00 +10°C° 0 mm 1 mps 757 mmHg 78%
    01:00 +9°C° 0 mm 1 mps 757 mmHg 79%
    02:00 +9°C° 0 mm 1 mps 757 mmHg 79%
    03:00 +9°C° 0 mm 1 mps 756 mmHg 80%
    04:00 +7°C° 0 mm 0 mps 756 mmHg 80%
    05:00 +9°C° 0 mm 0 mps 756 mmHg 75%
    06:00 +12°C° 0 mm 1 mps 756 mmHg 69%
    07:00 +14°C° 0 mm 1 mps 756 mmHg 64%
    08:00 +16°C° 0 mm 1 mps 756 mmHg 58%
    09:00 +18°C° 0 mm 1 mps 756 mmHg 53%
    10:00 +20°C° 0 mm 1 mps 756 mmHg 47%
    11:00 +21°C° 0 mm 1 mps 755 mmHg 44%
    12:00 +20°C° 0 mm 0 mps 755 mmHg 40%
    13:00 +21°C° 0 mm 0 mps 755 mmHg 37%
    14:00 +22°C° 0 mm 0 mps 754 mmHg 37%
    15:00 +24°C° 0 mm 1 mps 754 mmHg 37%
    16:00 +24°C° 0 mm 1 mps 753 mmHg 36%
    17:00 +22°C° 0 mm 1 mps 753 mmHg 45%
    18:00 +21°C° 0 mm 1 mps 753 mmHg 53%
    19:00 +19°C° 0 mm 1 mps 753 mmHg 61%
    20:00 +17°C° 0 mm 2 mps 753 mmHg 64%
    21:00 +16°C° 0 mm 2 mps 753 mmHg 67%
    22:00 +14°C° 0 mm 2 mps 753 mmHg 70%
    23:00 +14°C° 0 mm 2 mps 753 mmHg 73%

    Tomorrow, 25 May, Saturday

    Time Temperature Precipitation Wind Pressure Humidity
    00:00 +14°C° 0 mm 2 mps 753 mmHg 77%
    01:00 +13°C° 0 mm 2 mps 753 mmHg 81%
    02:00 +13°C° 0 mm 2 mps 753 mmHg 84%
    03:00 +12°C° 0 mm 3 mps 753 mmHg 87%
    04:00 +11°C° 0 mm 3 mps 753 mmHg 90%
    05:00 +12°C° 0 mm 3 mps 753 mmHg 86%
    06:00 +13°C° 0 mm 3 mps 753 mmHg 83%
    07:00 +16°C° 0 mm 3 mps 753 mmHg 79%
    08:00 +17°C° 0 mm 3 mps 754 mmHg 71%
    09:00 +18°C° 0 mm 4 mps 754 mmHg 64%
    10:00 +19°C° 0 mm 4 mps 754 mmHg 56%
    11:00 +19°C° 0 mm 4 mps 754 mmHg 54%
    12:00 +20°C° 0 mm 4 mps 754 mmHg 51%
    13:00 +21°C° 0 mm 4 mps 754 mmHg 49%
    14:00 +21°C° 0 mm 4 mps 753 mmHg 49%
    15:00 +21°C° 0 mm 4 mps 753 mmHg 49%
    16:00 +21°C° 0 mm 4 mps 753 mmHg 49%
    17:00 +20°C° 0 mm 3 mps 753 mmHg 55%
    18:00 +19°C° 0 mm 3 mps 753 mmHg 60%
    19:00 +18°C° 0 mm 2 mps 753 mmHg 66%
    20:00 +16°C° 0 mm 2 mps 753 mmHg 70%
    21:00 +14°C° 0 mm 1 mps 754 mmHg 74%
    22:00 +13°C° 0 mm 1 mps 754 mmHg 78%
    23:00 +12°C° 0 mm 1 mps 754 mmHg 81%

    Day after tomorrow, 26 May, Sunday

    Time Temperature Precipitation Wind Pressure Humidity
    00:00 +12°C° 0 mm 1 mps 754 mmHg 83%
    01:00 +10°C° 0 mm 2 mps 754 mmHg 85%
    02:00 +10°C° 0 mm 2 mps 754 mmHg 88%
    03:00 +10°C° 0 mm 2 mps 754 mmHg 91%
    04:00 +9°C° 0 mm 2 mps 754 mmHg 94%
    05:00 +11°C° 0 mm 3 mps 754 mmHg 89%
    06:00 +12°C° 0 mm 3 mps 754 mmHg 84%
    07:00 +13°C° 0 mm 4 mps 754 mmHg 79%
    08:00 +14°C° 0 mm 4 mps 753 mmHg 73%
    09:00 +15°C° 0 mm 4 mps 753 mmHg 66%
    10:00 +17°C° 0 mm 4 mps 753 mmHg 60%
    11:00 +17°C° 0 mm 5 mps 753 mmHg 56%
    12:00 +19°C° 0 mm 5 mps 753 mmHg 53%
    13:00 +20°C° 0 mm 5 mps 752 mmHg 49%
    14:00 +20°C° 0 mm 5 mps 752 mmHg 49%
    15:00 +21°C° 0 mm 5 mps 752 mmHg 50%
    16:00 +21°C° 0 mm 5 mps 752 mmHg 50%
    17:00 +20°C° 0 mm 4 mps 752 mmHg 56%
    18:00 +19°C° 0 mm 3 mps 752 mmHg 61%
    19:00 +18°C° 0 mm 2 mps 752 mmHg 67%
    20:00 +17°C° 0 mm 2 mps 752 mmHg 71%
    21:00 +16°C° 0 mm 2 mps 752 mmHg 75%
    22:00 +14°C° 0 mm 2 mps 752 mmHg 80%
    23:00 +14°C° 0 mm 2 mps 752 mmHg 82%

    27 May, Monday

    Time Temperature Precipitation Wind Pressure Humidity
    00:00 +13°C° 0 mm 3 mps 751 mmHg 85%
    01:00 +12°C° 0 mm 3 mps 751 mmHg 87%
    02:00 +12°C° 0 mm 3 mps 751 mmHg 85%
    03:00 +12°C° 0 mm 3 mps 750 mmHg 84%
    04:00 +12°C° 0 mm 3 mps 750 mmHg 82%
    05:00 +14°C° 0 mm 4 mps 750 mmHg 77%
    06:00 +17°C° 0 mm 4 mps 750 mmHg 72%
    07:00 +19°C° 0 mm 5 mps 750 mmHg 68%
    08:00 +20°C° 0 mm 5 mps 750 mmHg 65%
    09:00 +21°C° 0 mm 6 mps 749 mmHg 63%
    10:00 +22°C° 0 mm 6 mps 749 mmHg 60%
    11:00 +22°C° 0.3 mm 6 mps 749 mmHg 61%
    12:00 +22°C° 0.3 mm 6 mps 749 mmHg 61%
    13:00 +22°C° 0.3 mm 6 mps 749 mmHg 62%
    14:00 +22°C° 0.3 mm 6 mps 749 mmHg 63%
    15:00 +22°C° 0.3 mm 6 mps 749 mmHg 64%
    16:00 +21°C° 0.3 mm 6 mps 749 mmHg 65%
    17:00 +20°C° 0 mm 5 mps 749 mmHg 68%
    18:00 +19°C° 0 mm 4 mps 750 mmHg 71%
    19:00 +18°C° 0 mm 3 mps 750 mmHg 74%
    20:00 +17°C° 0 mm 2 mps 750 mmHg 79%
    21:00 +15°C° 0 mm 2 mps 750 mmHg 84%
    22:00 +14°C° 0 mm 2 mps 751 mmHg 89%
    23:00 +13°C° 0 mm 2 mps 751 mmHg 90%

    28 May, Tuesday

    Time Temperature Precipitation Wind Pressure Humidity
    00:00 +13°C° 0 mm 1 mps 750 mmHg 92%
    01:00 +13°C° 0 mm 1 mps 750 mmHg 94%
    02:00 +12°C° 0 mm 1 mps 750 mmHg 94%
    03:00 +12°C° 0 mm 1 mps 750 mmHg 94%
    04:00 +12°C° 0 mm 1 mps 750 mmHg 94%
    05:00 +13°C° 0 mm 1 mps 750 mmHg 91%
    06:00 +14°C° 0 mm 1 mps 750 mmHg 87%
    07:00 +15°C° 0 mm 1 mps 750 mmHg 84%
    08:00 +15°C° 0.2 mm 1 mps 750 mmHg 82%
    09:00 +16°C° 0.2 mm 2 mps 749 mmHg 81%
    10:00 +17°C° 0.2 mm 2 mps 749 mmHg 79%
    11:00 +16°C° 0.6 mm 2 mps 749 mmHg 80%
    12:00 +16°C° 0.6 mm 2 mps 749 mmHg 82%
    13:00 +16°C° 0.6 mm 2 mps 749 mmHg 83%
    14:00 +16°C° 0.8 mm 2 mps 749 mmHg 86%
    15:00 +15°C° 0.8 mm 2 mps 748 mmHg 89%
    16:00 +15°C° 0.8 mm 1 mps 748 mmHg 92%
    17:00 +15°C° 0.1 mm 1 mps 748 mmHg 92%
    18:00 +15°C° 0.1 mm 1 mps 748 mmHg 93%
    19:00 +14°C° 0.1 mm 1 mps 748 mmHg 93%
    20:00 +14°C° 0 mm 2 mps 749 mmHg 94%
    21:00 +14°C° 0 mm 2 mps 749 mmHg 95%
    22:00 +13°C° 0 mm 2 mps 749 mmHg 96%
    23:00 +13°C° 0 mm 2 mps 749 mmHg 97%

    29 May, Wednesday

    Time Temperature Precipitation Wind Pressure Humidity
    00:00 +13°C° 0 mm 2 mps 749 mmHg 97%
    01:00 +12°C° 0 mm 2 mps 749 mmHg 97%
    02:00 +12°C° 0 mm 2 mps 749 mmHg 97%
    03:00 +12°C° 0 mm 2 mps 750 mmHg 97%
    04:00 +12°C° 0 mm 2 mps 750 mmHg 97%
    05:00 +13°C° 0 mm 2 mps 750 mmHg 93%
    06:00 +13°C° 0 mm 3 mps 751 mmHg 89%
    07:00 +14°C° 0 mm 3 mps 751 mmHg 85%
    08:00 +17°C° 0 mm 3 mps 751 mmHg 77%
    09:00 +18°C° 0 mm 3 mps 752 mmHg 68%
    10:00 +20°C° 0 mm 3 mps 752 mmHg 60%
    11:00 +20°C° 0.1 mm 3 mps 752 mmHg 60%
    12:00 +20°C° 0.1 mm 3 mps 753 mmHg 61%
    13:00 +20°C° 0.1 mm 3 mps 753 mmHg 62%
    14:00 +18°C° 1 mm 4 mps 753 mmHg 71%
    15:00 +16°C° 1 mm 5 mps 753 mmHg 80%
    16:00 +14°C° 1 mm 6 mps 753 mmHg 89%
    17:00 +13°C° 1.4 mm 5 mps 754 mmHg 90%
    18:00 +12°C° 1.4 mm 5 mps 754 mmHg 91%
    19:00 +10°C° 1.4 mm 5 mps 755 mmHg 92%
    20:00 +11°C° 0.5 mm 4 mps 756 mmHg 92%
    21:00 +10°C° 0.5 mm 4 mps 756 mmHg 91%
    22:00 +9°C° 0.5 mm 3 mps 757 mmHg 90%
    23:00 +9°C° 0.2 mm 3 mps 757 mmHg 91%
    Show more